Location: Unspecified
(0.0000°N, 0.0000°E)
Time: 20:48:19
(UTC+00:00)

Tiros 1 - Pass Details

Date: 21 October 2021
Orbit: 630 x 664 km, 48.4° (Epoch: 04 December)

Event Time Altitude Azimuth Distance (km) Brightness Sun altitude
Rises 07:31:17 0° 207° (SSW) 2,988 10.4 26.2°
Reaches altitude 10° 07:33:43 10° 200° (SSW) 2,076 9.8 26.7°
Maximum altitude 07:38:17 43° 129° (SE) 929 9.4 27.9°
Drops below altitude 10° 07:42:48 10° 58° (ENE) 2,068 10.5 29.0°
Sets 07:45:14 0° 51° (NE) 2,975 11.1 29.6°
